Regional Weather Roundup
Issued by NWS

Home | Current Version | Previous Version | Text Only | Print | Product List | Glossary Off
Versions: 1 2 3 4 5 6 7 8 9 10 11 12 13 14 15 16 17 18 19 20 21 22 23 24 25 26 27 28 29 30 31 32 33 34 35 36 37 38 39 40 41 42 43 44 45 46 47 48 49 50

000
ASUS45 KBOI 020010
RWRID

IDAHO REGIONAL WEATHER ROUNDUP
NATIONAL WEATHER SERVICE BOISE ID
600 PM MDT TUE SEP 01 2015

NOTE: "FAIR" INDICATES FEW OR NO CLOUDS BELOW 12000 FEET
WITH NO SIGNIFICANT WEATHER AND/OR OBSTRUCTIONS TO VISIBILITY

IDZ012-014-020100-
SOUTHWEST IDAHO


CITY           SKY/WX    TMP DP  RH WIND       PRES   REMARKS
BOISE          CLOUDY    84  40  21 N8        29.77F
CALDWELL         N/A     88  43  20 NE6       29.77F
MOUNTAIN HOME  MOSUNNY   90  35  14 W3        29.75F
$$

IDZ016-017-020100-
SOUTHCENTRAL IDAHO


CITY           SKY/WX    TMP DP  RH WIND       PRES   REMARKS
BURLEY         MOSUNNY   86  39  19 N5        29.84F
JEROME         SUNNY     85  44  23 NW3       29.85F
TWIN FALLS     SUNNY     90  33  13 VRB5      29.85F
$$

IDZ019>023-020100-
SOUTHEAST IDAHO


CITY           SKY/WX    TMP DP  RH WIND       PRES   REMARKS
IDAHO FALLS    MOSUNNY   86  26  11 SW16      29.92F
POCATELLO      SUNNY     87  28  12 NW7       29.90F
REXBURG        SUNNY     83  31  15 SW13      29.92F
$$

IDZ006-010-011-018-031-032-020100-
CENTRAL IDAHO MOUNTAINS


CITY           SKY/WX    TMP DP  RH WIND       PRES   REMARKS
MCCALL         PTSUNNY   75  36  24 S13       29.90F
HAILEY         MOSUNNY   81  34  18 SW8       29.94F
STANLEY          N/A     75  23  14 VRB5      30.01S
SALMON         MOSUNNY   84  43  23 N6        29.74S
CHALLIS        PTSUNNY   85  24  11 SW13G20   29.85S
$$

IDZ002-004-006-007-026-020100-
NORTHERN IDAHO


CITY           SKY/WX    TMP DP  RH WIND       PRES   REMARKS
LEWISTON       SUNNY     84  42  22 W9        29.72F
LOWELL           N/A     74  58  57 N3        29.68F
COEUR D`ALENE  MOSUNNY   73  36  25 S12       29.77F
MULLAN PASS    PTSUNNY   59  27  29 VRB6      29.94F
$$



USA.gov is the U.S. government's official web portal to all federal, state and local government web resources and services.